Waarnemingen

Advertentie
Mijn weer
Parkalompolo, Zweden (2072): temperatuur & dauwpunt: 14.01.2021 23:00:00 - 20.01.2021 23:00:00 (CET)Parkalompolo, Zweden (2072): windstoten: 14.01.2021 23:00:00 - 20.01.2021 23:00:00 (CET)Parkalompolo, Zweden (2072): windrichting: 14.01.2021 23:00:00 - 20.01.2021 23:00:00 (CET)Parkalompolo, Zweden (2072): luchtdruk: 14.01.2021 23:00:00 - 20.01.2021 23:00:00 (CET)Parkalompolo, Zweden (2072): zicht: 14.01.2021 23:00:00 - 20.01.2021 23:00:00 (CET)Parkalompolo, Zweden (2072): neerslag: 14.01.2021 23:00:00 - 20.01.2021 23:00:00 (CET)
Datum & Tijd tt [°C] td [°C] fx [km/u] fx [kn] dd ppp [hPa] vv [km] rr [mm]
20.01.2021 23:00:00 -16,8 -18,8 0 0 N 1015,3 22 0,0
20.01.2021 22:00:00 -16,7 -18,6 1 1 N 1015,4 21 0,0
20.01.2021 21:00:00 -16,3 -18,2 1 1 N 1015,5 24 0,0
20.01.2021 20:00:00 -16,1 -18,0 1 1 N 1015,4 22 0,0
20.01.2021 19:00:00 -16,6 -18,5 1 0 N 1015,4 22 0,0
20.01.2021 18:00:00 -15,9 -17,7 1 0 N 1015,3 24 0,0
20.01.2021 17:00:00 -15,8 -17,6 1 1 N 1015,1 24 0,0
20.01.2021 16:00:00 -16,1 -17,9 1 0 N 1015,2 22 0,0
20.01.2021 15:00:00 -15,8 -17,6 1 1 N 1015,1 21 0,0
20.01.2021 14:00:00 -15,5 -17,3 1 1 N 1015,0 23 0,0
20.01.2021 13:00:00 -14,9 -16,7 1 1 N 1015,2 22 0,0
20.01.2021 12:00:00 -15,0 -16,8 1 1 N 1015,2 20 0,0
20.01.2021 11:00:00 -15,1 -16,9 1 1 N 1015,2 20 0,0
20.01.2021 10:00:00 -14,6 -16,3 1 1 N 1014,9 19 0,0
20.01.2021 09:00:00 -14,8 -16,5 1 1 N 1014,9 18 0,0
20.01.2021 08:00:00 -14,6 -16,3 1 0 N 1014,6 15 0,0
20.01.2021 07:00:00 -15,3 -17,0 1 1 N 1014,6 18 0,0
20.01.2021 06:00:00 -15,6 -17,4 1 1 N 1014,8 18 0,0
20.01.2021 05:00:00 -14,8 -16,5 1 1 N 1014,7 15 0,0
20.01.2021 04:00:00 -15,1 -16,8 1 1 N 1014,6 9 0,0
20.01.2021 03:00:00 -14,2 -15,9 1 1 N 1014,3 9 0,0
20.01.2021 02:00:00 -14,4 -16,1 1 1 N 1014,2 5 0,0
20.01.2021 01:00:00 -14,2 -15,7 1 0 N 1014,1 15 0,0
20.01.2021 00:00:00 -13,8 -15,4 1 1 N 1014,1 16 0,0
19.01.2021 23:00:00 -13,7 -15,3 1 0 N 1014,1 15 0,0
19.01.2021 22:00:00 -13,2 -14,8 1 0 N 1013,8 14 0,0
19.01.2021 21:00:00 -12,5 -13,9 1 0 N 1013,5 13 0,0
19.01.2021 20:00:00 -11,2 -12,5 1 0 N 1013,2 13 0,0
19.01.2021 19:00:00 -10,5 -11,8 1 0 N 1012,8 14 0,0
19.01.2021 18:00:00 -10,6 -11,9 1 0 N 1012,3 4,2 0,1
19.01.2021 17:00:00 -10,9 -12,2 1 0 N 1012,0 5 0,0
19.01.2021 16:00:00 -11,9 -13,3 1 0 N 1011,8 25 0,0
19.01.2021 15:00:00 -12,9 -14,5 1 1 N 1011,7 15 0,0
19.01.2021 14:00:00 -11,6 -12,9 1 1 N 1011,2 17 0,0
19.01.2021 13:00:00 -11,9 -13,3 1 1 N 1010,8 19 0,0
19.01.2021 12:00:00 -11,7 -13,1 1 1 N 1010,6 19 0,0
19.01.2021 11:00:00 -10,6 -11,9 1 0 N 1010,3 16 0,0
19.01.2021 10:00:00 -9,2 -10,4 0 0 N 1010,0 19 0,0
19.01.2021 09:00:00 -9,0 -10,2 1 1 N 1009,7 21 0,0
19.01.2021 08:00:00 -10,1 -11,3 1 0 N 1009,4 22 0,0
19.01.2021 07:00:00 -11,7 -13,0 1 1 N 1009,1 24 0,0
19.01.2021 06:00:00 -24,4 -27,1 1 0 N 1009,8 21 0,0
19.01.2021 05:00:00 -23,9 -26,5 1 0 N 1009,5 18 0,0
19.01.2021 04:00:00 -24,0 -26,6 0 0 N 1009,3 29 0,0
19.01.2021 03:00:00 -24,4 -27,0 - - N 1009,0 30 0,0
19.01.2021 02:00:00 -24,8 -27,4 - - N 1008,9 31 0,0
19.01.2021 01:00:00 -24,8 -27,4 - - N 1008,8 29 0,0
19.01.2021 00:00:00 -24,4 -26,9 0 0 N 1008,6 27 0,0
18.01.2021 23:00:00 -24,1 -26,6 1 0 N 1008,6 8 0,0
18.01.2021 22:00:00 -24,6 -27,3 0 0 N 1008,5 27 0,0
18.01.2021 21:00:00 -24,5 -27,0 - - N 1008,3 27 0,0
18.01.2021 20:00:00 -24,3 -26,8 - - N 1007,9 16 0,0
18.01.2021 19:00:00 -23,8 -26,3 - - N 1007,6 14 0,0
18.01.2021 18:00:00 -23,1 -25,4 - - N 1007,7 1,2 0,0
18.01.2021 17:00:00 -23,2 -25,6 0 0 N 1007,9 - 0,0
18.01.2021 16:00:00 -23,0 -25,4 0 0 N 1007,7 19 0,0
18.01.2021 15:00:00 -22,4 -24,8 0 0 N 1007,5 28 0,0
18.01.2021 14:00:00 -22,2 -24,6 0 0 N 1007,7 32 0,0
18.01.2021 13:00:00 -21,9 -24,1 0 0 N 1007,9 28 0,0
18.01.2021 12:00:00 -20,7 -22,8 0 0 N 1008,0 33 0,0
18.01.2021 11:00:00 -20,8 -22,9 1 0 N 1008,2 28 0,0
18.01.2021 10:00:00 -20,6 -22,9 1 0 N 1008,4 32 0,0
18.01.2021 09:00:00 -20,6 -22,9 1 0 N 1008,3 31 0,0
18.01.2021 08:00:00 -21,3 -23,5 1 0 N 1008,3 30 0,0
18.01.2021 07:00:00 -20,0 -21,9 1 0 N 1008,0 29 0,0
18.01.2021 06:00:00 -19,7 -21,8 0 0 N 1008,2 30 0,0
18.01.2021 05:00:00 -19,3 -21,3 1 0 N 1008,3 20 0,0
18.01.2021 04:00:00 -19,9 -22,0 0 0 N 1008,7 31 0,0
18.01.2021 03:00:00 -19,3 -21,5 0 0 N 1008,8 5 0,0
18.01.2021 02:00:00 -17,7 -19,6 - - N 1008,7 8 0,0
18.01.2021 01:00:00 -17,7 -19,6 - - N 1009,1 4,4 0,0
18.01.2021 00:00:00 -18,0 -20,0 - - N 1009,5 30 0,0
17.01.2021 23:00:00 -17,3 -19,1 - - N 1010,0 30 0,0
17.01.2021 22:00:00 -17,3 -19,4 - - N 1010,2 31 0,0
17.01.2021 21:00:00 -17,4 -19,3 - - N 1010,7 24 0,0
17.01.2021 20:00:00 -17,7 -19,5 - - N 1010,9 33 0,0
17.01.2021 19:00:00 -17,7 -19,7 - - N 1011,0 24 0,0
17.01.2021 18:00:00 -16,4 -18,2 - - N 1011,0 23 0,0
17.01.2021 17:00:00 -16,0 -17,8 - - N 1011,1 23 0,0
17.01.2021 16:00:00 -16,9 -18,8 - - N 1011,4 21 0,0
17.01.2021 15:00:00 -15,1 -16,6 - - N 1011,3 27 0,0
17.01.2021 14:00:00 -15,5 -17,3 - - N 1011,5 18 0,0
17.01.2021 13:00:00 -14,3 -15,8 - - N 1012,0 20 0,0
17.01.2021 12:00:00 -13,1 -14,5 - - N 1012,2 26 0,0
17.01.2021 11:00:00 -12,7 -14,1 - - N 1012,7 20 0,0
17.01.2021 10:00:00 -11,8 -13,2 0 0 N 1012,7 20 0,0
17.01.2021 09:00:00 -11,1 -12,1 0 0 N 1012,5 26 0,0
17.01.2021 08:00:00 -10,1 -11,7 1 0 N 1012,4 32 0,0
17.01.2021 07:00:00 -7,3 -8,2 1 1 N 1012,2 31 0,0
17.01.2021 06:00:00 -8,2 -8,9 1 1 N 1012,5 33 0,0
17.01.2021 05:00:00 -10,6 -11,9 - - N 1013,1 30 0,0
17.01.2021 04:00:00 -11,4 -12,7 - - N 1013,4 29 0,0
17.01.2021 03:00:00 -11,9 -13,2 0 0 N 1013,7 31 0,0
17.01.2021 02:00:00 -11,3 -12,6 1 0 N 1014,0 28 0,0
17.01.2021 01:00:00 -6,6 -7,4 1 0 N 1014,0 33 0,0
17.01.2021 00:00:00 -10,0 -11,2 0 0 N 1014,7 29 0,0
16.01.2021 23:00:00 -10,4 -11,9 1 0 N 1015,2 31 0,0
16.01.2021 22:00:00 -8,4 -9,5 1 0 N 1015,5 21 0,0
16.01.2021 21:00:00 -9,2 -10,1 1 0 N 1015,7 34 -
16.01.2021 20:00:00 -10,8 -12,0 0 0 N 1016,2 27 0,0
16.01.2021 19:00:00 -11,7 -13,1 0 0 N 1016,5 29 0,0
16.01.2021 18:00:00 -11,5 -12,9 0 0 N 1016,9 8 0,0
16.01.2021 17:00:00 -12,3 -13,6 0 0 N 1017,2 22 0,0
16.01.2021 16:00:00 -14,6 -16,1 1 0 N 1017,7 - 0,0
16.01.2021 15:00:00 -13,5 -15,1 0 0 N 1018,0 29 0,0
16.01.2021 14:00:00 -11,9 -13,1 1 0 N 1018,3 23 0,0
16.01.2021 13:00:00 -11,5 -12,8 0 0 N 1018,8 29 0,0
16.01.2021 12:00:00 -13,5 -14,9 0 0 N 1019,4 - 0,0
16.01.2021 11:00:00 -13,8 -15,5 0 0 N 1019,7 7 0,0
16.01.2021 10:00:00 -13,6 -15,0 0 0 N 1020,0 18 0,0
16.01.2021 09:00:00 -13,7 -15,4 0 0 N 1020,1 30 0,0
16.01.2021 08:00:00 -12,8 -14,2 1 1 N 1020,1 30 0,0
16.01.2021 07:00:00 -12,5 -14,1 1 0 N 1020,2 34 0,0
16.01.2021 06:00:00 -12,1 -13,3 - - N 1020,3 35 0,0
16.01.2021 05:00:00 -12,1 -13,4 0 0 N 1020,5 27 0,0
16.01.2021 04:00:00 -11,2 -13,2 1 0 N 1020,7 26 0,0
16.01.2021 03:00:00 -9,3 -10,8 1 1 N 1020,3 28 0,0
16.01.2021 02:00:00 -7,4 -8,5 1 1 N 1020,2 28 0,0
16.01.2021 01:00:00 -6,0 -7,1 2 1 N 1020,2 32 0,0
16.01.2021 00:00:00 -5,9 -7,0 1 1 N 1020,5 26 0,0
15.01.2021 23:00:00 -5,7 -6,8 1 0 N 1020,4 26 0,0
15.01.2021 22:00:00 -6,1 -7,2 1 1 N 1020,4 26 0,0
15.01.2021 21:00:00 -6,3 -7,0 1 1 N 1020,1 25 0,0
15.01.2021 20:00:00 -8,5 -9,6 1 0 N 1020,0 21 0,0
15.01.2021 19:00:00 -8,6 -10,2 1 0 N 1019,8 23 0,0
15.01.2021 18:00:00 -6,7 -7,4 1 0 N 1019,3 24 0,0
15.01.2021 17:00:00 -7,1 -7,9 1 0 N 1019,3 30 0,0
15.01.2021 16:00:00 -7,4 -8,5 1 0 N 1019,3 32 0,0
15.01.2021 15:00:00 -7,1 -7,9 1 0 N 1019,2 33 0,0
15.01.2021 14:00:00 -7,7 -8,8 1 0 N 1019,1 35 0,0
15.01.2021 13:00:00 -7,9 -9,0 1 0 N 1019,1 33 0,0
15.01.2021 12:00:00 -7,1 -8,0 1 1 N 1019,2 31 0,0
15.01.2021 11:00:00 -6,6 -7,5 1 1 N 1019,2 30 0,0
15.01.2021 10:00:00 -7,0 -7,9 1 1 N 1019,4 30 0,0
15.01.2021 09:00:00 -7,4 -8,3 1 0 N 1019,5 33 0,0
15.01.2021 08:00:00 -7,7 -8,6 1 1 N 1019,5 29 0,0
15.01.2021 07:00:00 -7,8 -8,7 1 1 N 1019,2 34 0,0
15.01.2021 06:00:00 -8,4 -9,3 1 0 N 1019,3 31 0,0
15.01.2021 05:00:00 -9,2 -10,1 1 0 N 1019,4 33 0,0
15.01.2021 04:00:00 -10,9 -12,1 0 0 N 1019,8 32 0,0
15.01.2021 03:00:00 -12,4 -13,8 1 0 N 1020,2 28 0,0
15.01.2021 02:00:00 -10,8 -12,0 1 0 N 1020,4 32 0,0
15.01.2021 01:00:00 -13,7 -15,4 0 0 N 1021,2 30 0,0
15.01.2021 00:00:00 -14,5 -16,2 1 0 N 1021,5 31 0,0
14.01.2021 23:00:00 -16,5 -18,6 1 0 N 1021,8 25 0,0

tt = temperatuur
td = dauwpunt
fx = windstoten
dd = windrichting
ppp = luchtdruk
vv = zicht
rr = neerslag

Weerstations in de omgeving